Regional Weather Roundup
Issued by NWS

Home | Current Version | Previous Version | Graphics & Text | Print | Product List | Glossary Off
Versions: 1 2 3 4 5 6 7 8 9 10 11 12 13 14 15 16 17 18 19 20 21 22 23 24 25 26 27 28 29 30 31 32 33 34 35 36 37 38 39 40 41 42 43 44 45 46 47 48 49 50

000
ASUS43 KDMX 050408
RWRIA

WEATHER ROUNDUP FOR IOWA
NATIONAL WEATHER SERVICE DES MOINES IA
1100 PM CDT WED MAY 04 2016

NOTE: "FAIR" INDICATES FEW OR NO CLOUDS BELOW 12,000 FEET WITH NO
SIGNIFICANT WEATHER AND/OR OBSTRUCTIONS TO VISIBILITY.

* - THESE STATIONS ARE NOT NWS STATIONS...THUS NOT UNDER NWS
QUALITY CONTROL.  THEY ALSO DO NOT REPORT WEATHER SUCH
AS PRECIPITATION OR FOG.

IAZ001>003-012>014-020>022-031>034-043>046-050500-
   NORTHWEST IOWA

CITY           SKY/WX    TMP DP  RH WIND       PRES   REMARKS
CARROLL *      PTCLDY    52  39  62 NW8       29.98F
CHEROKEE *     PTCLDY    46  41  81 CALM      30.01R
DENISON *      CLEAR     55  37  50 CALM      29.99S
LE MARS *      CLEAR     52  41  66 CALM      30.03R
ORANGE CITY *  CLEAR     57  34  41 N6        30.02S
SHELDON *      CLEAR     48  36  61 NW5       30.00S
SIOUX CITY     CLEAR     54  38  54 NW3       30.02R
SPENCER        CLEAR     49  38  65 NW8       30.00S
STORM LAKE *   CLEAR     52  36  54 N8        30.01R
$$

IAZ055>058-069>071-079>083-090>094-050500-
   SOUTHWEST IOWA

CITY           SKY/WX    TMP DP  RH WIND       PRES   REMARKS
ATLANTIC *     CLEAR     52  39  62 N3        30.01R
AUDUBON *      CLEAR     45  39  81 CALM      30.01S
CLARINDA *       N/A     50  45  81 MISG      30.02
COUNCIL BLFS * PTCLDY    55  41  58 NW6       30.02R
CRESTON *      CLEAR     52  39  62 W6        30.00S
HARLAN  *      CLEAR     54  41  62 NW9       30.04R
LAMONI         CLEAR     50  40  68 W7        29.98R
RED OAK *      CLEAR     54  41  62 NW8       30.01R
SHENANDOAH *   CLEAR     54  41  62 CALM      30.02R
$$

IAZ047>049-059>061-072>074-084-050500-
   CENTRAL IOWA

CITY           SKY/WX    TMP DP  RH WIND       PRES   REMARKS
AMES           CLEAR     53  36  52 CALM      29.97R
ANKENY *       CLEAR     52  39  62 N5        29.97R
BOONE *        CLEAR     52  36  54 N7        29.96S
CHARITON *     CLEAR     54  39  58 NW9       29.95S
DES MOINES     CLEAR     57  35  43 N6        29.97R
GRINNELL*      CLEAR     50  32  50 N7        29.96R
KNOXVILLE *    CLEAR     52  36  54 NW7       29.94S
MARSHALLTOWN   CLEAR     50  32  50 N8        29.95R
NEWTON *       CLEAR     54  32  43 N8        29.95S
PELLA *        CLEAR     50  36  57 NW3       29.96S
PERRY *          N/A     54  39  58 NW7       29.98R
$$

IAZ004>006-015-016-023>025-035-036-050500-
   NORTH CENTRAL IOWA

CITY           SKY/WX    TMP DP  RH WIND       PRES   REMARKS
ALGONA *       CLEAR     54  34  47 N3        29.99S
CLARION *      CLEAR     46  30  53 NE7       29.98R
ESTHERVILLE    CLEAR     49  38  65 NW7       29.99R
FORT DODGE *   CLEAR     54  34  47 N3        29.99R
MASON CITY     CLEAR     46  30  53 N7        29.99R
FOREST CITY *  CLEAR     45  32  61 N5        29.98S
WEBSTER CITY * CLEAR     48  34  57 N5        29.96R
IOWA FALLS *     N/A     55  30  38 N5        29.98R
$$

IAZ007>011-017>019-026>030-037>042-050>054-066-050500-
   NORTHEAST IOWA

CITY           SKY/WX    TMP DP  RH WIND       PRES   REMARKS
CEDAR RAPIDS   CLEAR     50  34  54 N8        29.92R
CHARLES CITY * CLEAR     50  28  43 N8        29.97S
CLINTON *      CLEAR     45  37  73 N12       29.91R
DECORAH *      CLEAR     52  23  32 NE5       29.95R
DUBUQUE        CLEAR     51  26  37 N10       29.93R
MONTICELLO *   CLEAR     48  36  61 N6        29.93R
OELWEIN *      CLEAR     48  32  53 N7        29.96R
WATERLOO       CLEAR     46  32  58 N7        29.95R
$$

IAZ064-065-067-068-078-050500-
   EAST CENTRAL IOWA

CITY           SKY/WX    TMP DP  RH WIND       PRES   REMARKS
DAVENPORT      PTCLDY    47  35  63 N12       29.91S
IOWA CITY      CLEAR     48  35  60 NW5       29.94R
MT. PLEASANT * CLEAR     54  36  50 N6        29.93S
MUSCATINE *    CLEAR     52  34  50 N6        29.92S
QUAD CITIES    CLEAR     54  33  45 NW6       29.89R
$$

IAZ062-063-075>077-085>089-095>099-050500-
   SOUTHEAST IOWA

CITY           SKY/WX    TMP DP  RH WIND       PRES   REMARKS
BURLINGTON     PTCLDY    52  35  52 NW7       29.90S
FAIRFIELD *    CLEAR     48  34  57 N7        29.93S
FORT MADISON * CLEAR     50  36  57 N5        29.92F
KEOKUK *       CLEAR     54  36  50 N3        29.91S
OSKALOOSA *      N/A     50  34  53 N8        29.95R
OTTUMWA        CLEAR     48  34  58 N9        29.94R
WASHINGTON *   CLEAR     52  36  54 N7        29.94S
$$

ABBREVIATIONS USED IN REMARKS
   TC - TEMPERATURES IN CELSIUS
  WCI - WIND CHILL INDEX
   HX - HEAT INDEX
  VSB - VISIBILITY
$$





USA.gov is the U.S. government's official web portal to all federal, state and local government web resources and services.